Levante — 9HOB7 — position and weather

sailwx.info

Track history (hours):
 
Tides and Currents Weather Stations Pressure Air Temp Water Temp Dewpoint Dewpoint Depression Visibility Wind Speed Wind Dir Waves Ship Positions

Levante

Last reported at 2014-Sep-14 05:22 UTC. Time now 2014-Sep-17 03:37 UTC.
Position N 35°56' E 015°12'.

Length 188.3 m; beam 28 m; draft 10.1 m.

Type: Ship. MMSI: 215440000.

Date/timePositionNaut miles runAvg speedWind from/ knotsBaromVisibWave heightAir tempDewpointWater temp
2014-Sep-14 05:22N 35°56' E 015°12'1011.8
2014-Sep-14 04:33N 35°60' E 015°01'1211.6
2014-Sep-14 03:33N 36°03' E 014°48'1211.6
2014-Sep-14 02:33N 36°07' E 014°34'1212.1
2014-Sep-14 01:32N 36°14' E 014°21'5112.4
2014-Sep-13 21:23N 36°35' E 013°23'911.6
2014-Sep-13 20:34N 36°39' E 013°12'1211.7
2014-Sep-13 19:33N 36°43' E 012°59'1211.6
2014-Sep-13 18:33N 36°46' E 012°45'1211.4
2014-Sep-13 17:29N 36°53' E 012°32'47211.8
2014-Sep-12 01:34N 36°54' E 002°41'1212.3
2014-Sep-12 00:33N 36°53' E 002°26'1212.2
2014-Sep-11 23:33N 36°51' E 002°11'1212.0
2014-Sep-11 22:33N 36°49' E 001°56'1211.9
2014-Sep-11 21:33N 36°48' E 001°42'1211.7
2014-Sep-11 20:33N 36°46' E 001°27'1211.7
2014-Sep-11 19:33N 36°44' E 001°13'1212.1
2014-Sep-11 18:33N 36°42' E 000°58'1312.2
2014-Sep-11 17:30N 36°41' E 000°42'1312.1
2014-Sep-11 16:27N 36°39' E 000°26'1111.8
2014-Sep-11 15:30N 36°38' E 000°12'1412.2
2014-Sep-11 14:20N 36°35' W 000°05'1012.4
2014-Sep-11 13:32N 36°34' W 000°17'4012.1
2014-Sep-11 10:12N 36°29' W 001°07'1211.6
2014-Sep-11 09:11N 36°27' W 001°22'911.4
2014-Sep-11 08:25N 36°25' W 001°33'2212.1
2014-Sep-11 06:33N 36°23' W 002°00'15912.9
2014-Sep-10 18:12N 35°59' W 005°15'914.1
2014-Sep-10 17:33N 35°57' W 005°26'  
2014-Sep-06 23:33N 49°25' W 004°32'12911.7
2014-Sep-06 12:31N 50°17' W 001°29'1414.2
2014-Sep-06 11:32N 50°21' W 001°07'1414.3
2014-Sep-06 10:33N 50°25' W 000°46'4112.2
2014-Sep-06 07:11N 50°35' E 000°16'710.6
2014-Sep-06 06:33N 50°37' E 000°26'1110.6
2014-Sep-06 05:33N 50°42' E 000°41'1211.6
2014-Sep-06 04:33N 50°48' E 000°57'1312.8
2014-Sep-06 03:33N 50°56' E 001°12'1413.7
2014-Sep-06 02:33N 51°04' E 001°29'1312.8
2014-Sep-06 01:33N 51°13' E 001°44'1111.5
2014-Sep-06 00:33N 51°24' E 001°52'1110.5
2014-Sep-05 23:34N 51°32' E 002°02'1010.5
2014-Sep-05 22:34N 51°40' E 002°13'1110.4
2014-Sep-05 21:31N 51°48' E 002°25'1110.6
2014-Sep-05 20:26N 51°58' E 002°34'2220.3
2014-Sep-05 19:22N 52°11' E 002°06'2126.4
2014-Sep-05 18:33N 52°21' E 002°36'11811.8
2014-Sep-05 08:32N 54°14' E 003°33'1411.8
2014-Sep-05 07:20N 54°27' E 003°45'1111.7
2014-Sep-05 06:21N 54°37' E 003°55'6811.6
2014-Sep-05 00:31N 55°35' E 004°53'7411.8
2014-Sep-04 18:17N 56°36' E 006°08'3211.6
2014-Sep-04 15:32N 57°01' E 006°44'4511.4
2014-Sep-04 11:33N 57°22' E 007°58'1211.6
2014-Sep-04 10:33N 57°28' E 008°17'1111.1
2014-Sep-04 09:33N 57°33' E 008°35'1110.9
2014-Sep-04 08:32N 57°38' E 008°53'1110.6
2014-Sep-04 07:32N 57°42' E 009°11'1110.9
2014-Sep-04 06:33N 57°48' E 009°29'1110.8
2014-Sep-04 05:33N 57°49' E 009°49'  
Track history (hours):
 
Tides and Currents Weather Stations Pressure Air Temp Water Temp Dewpoint Dewpoint Depression Visibility Wind Speed Wind Dir Waves Ship Positions

Levante

Last reported at 2014-Sep-14 05:22 UTC. Time now 2014-Sep-17 03:37 UTC.
Position N 35°56' E 015°12'.

Length 188.3 m; beam 28 m; draft 10.1 m.

Type: Ship. MMSI: 215440000.

Date/timePositionNaut miles runAvg speedWind from/ knotsBaromVisibWave heightAir tempDewpointWater temp
2014-Sep-14 05:22N 35°56' E 015°12'1011.8
2014-Sep-14 04:33N 35°60' E 015°01'1211.6
2014-Sep-14 03:33N 36°03' E 014°48'1211.6
2014-Sep-14 02:33N 36°07' E 014°34'1212.1
2014-Sep-14 01:32N 36°14' E 014°21'5112.4
2014-Sep-13 21:23N 36°35' E 013°23'911.6
2014-Sep-13 20:34N 36°39' E 013°12'1211.7
2014-Sep-13 19:33N 36°43' E 012°59'1211.6
2014-Sep-13 18:33N 36°46' E 012°45'1211.4
2014-Sep-13 17:29N 36°53' E 012°32'47211.8
2014-Sep-12 01:34N 36°54' E 002°41'1212.3
2014-Sep-12 00:33N 36°53' E 002°26'1212.2
2014-Sep-11 23:33N 36°51' E 002°11'1212.0
2014-Sep-11 22:33N 36°49' E 001°56'1211.9
2014-Sep-11 21:33N 36°48' E 001°42'1211.7
2014-Sep-11 20:33N 36°46' E 001°27'1211.7
2014-Sep-11 19:33N 36°44' E 001°13'1212.1
2014-Sep-11 18:33N 36°42' E 000°58'1312.2
2014-Sep-11 17:30N 36°41' E 000°42'1312.1
2014-Sep-11 16:27N 36°39' E 000°26'1111.8
2014-Sep-11 15:30N 36°38' E 000°12'1412.2
2014-Sep-11 14:20N 36°35' W 000°05'1012.4
2014-Sep-11 13:32N 36°34' W 000°17'4012.1
2014-Sep-11 10:12N 36°29' W 001°07'1211.6
2014-Sep-11 09:11N 36°27' W 001°22'911.4
2014-Sep-11 08:25N 36°25' W 001°33'2212.1
2014-Sep-11 06:33N 36°23' W 002°00'15912.9
2014-Sep-10 18:12N 35°59' W 005°15'914.1
2014-Sep-10 17:33N 35°57' W 005°26'  
2014-Sep-06 23:33N 49°25' W 004°32'12911.7
2014-Sep-06 12:31N 50°17' W 001°29'1414.2
2014-Sep-06 11:32N 50°21' W 001°07'1414.3
2014-Sep-06 10:33N 50°25' W 000°46'4112.2
2014-Sep-06 07:11N 50°35' E 000°16'710.6
2014-Sep-06 06:33N 50°37' E 000°26'1110.6
2014-Sep-06 05:33N 50°42' E 000°41'1211.6
2014-Sep-06 04:33N 50°48' E 000°57'1312.8
2014-Sep-06 03:33N 50°56' E 001°12'1413.7
2014-Sep-06 02:33N 51°04' E 001°29'1312.8
2014-Sep-06 01:33N 51°13' E 001°44'1111.5
2014-Sep-06 00:33N 51°24' E 001°52'1110.5
2014-Sep-05 23:34N 51°32' E 002°02'1010.5
2014-Sep-05 22:34N 51°40' E 002°13'1110.4
2014-Sep-05 21:31N 51°48' E 002°25'1110.6
2014-Sep-05 20:26N 51°58' E 002°34'2220.3
2014-Sep-05 19:22N 52°11' E 002°06'2126.4
2014-Sep-05 18:33N 52°21' E 002°36'11811.8
2014-Sep-05 08:32N 54°14' E 003°33'1411.8
2014-Sep-05 07:20N 54°27' E 003°45'1111.7
2014-Sep-05 06:21N 54°37' E 003°55'6811.6
2014-Sep-05 00:31N 55°35' E 004°53'7411.8
2014-Sep-04 18:17N 56°36' E 006°08'3211.6
2014-Sep-04 15:32N 57°01' E 006°44'4511.4
2014-Sep-04 11:33N 57°22' E 007°58'1211.6
2014-Sep-04 10:33N 57°28' E 008°17'1111.1
2014-Sep-04 09:33N 57°33' E 008°35'1110.9
2014-Sep-04 08:32N 57°38' E 008°53'1110.6
2014-Sep-04 07:32N 57°42' E 009°11'1110.9
2014-Sep-04 06:33N 57°48' E 009°29'1110.8
2014-Sep-04 05:33N 57°49' E 009°49'  

Dump ship's entire track history